GW4543 Weather Reports


time (UTC)temp
C
wind
direction
speed
KPH
gust
KPH
rain 1hr
cm
rain 24hr
cm
rain mn
cm
humidity
%
barometer
mb
20260906230816 37 107 4.8 11.3 0.00 0.00 0.00 43 1012.5
20260906230311 37 110 3.2 11.3 0.00 0.00 0.00 43 1012.5
20260906225809 37 104 4.8 8.0 0.00 0.00 0.00 43 1012.5
20260906225307 37 64 6.4 11.3 0.00 0.00 0.00 43 1012.5
20260906224800 37 115 4.8 11.3 0.00 0.00 0.00 44 1012.9
20260906224257 37 141 6.4 8.0 0.00 0.00 0.00 43 1012.5
20260906223753 37 135 4.8 12.9 0.00 0.00 0.00 44 1012.9
20260906223249 37 152 3.2 8.0 0.00 0.00 0.00 43 1012.9
20260906222747 37 106 1.6 4.8 0.00 0.00 0.00 42 1012.9
20260906222245 37 127 4.8 9.7 0.00 0.00 0.00 42 1012.5
20260906221743 37 133 4.8 11.3 0.00 0.00 0.00 42 1012.5
20260906221243 37 171 1.6 9.7 0.00 0.00 0.00 43 1012.9
20260906220739 38 110 4.8 11.3 0.00 0.00 0.00 42 1012.9
20260906220234 37 135 0.0 1.6 0.00 0.00 0.00 44 1012.9
20260906215733 37 103 6.4 16.1 0.00 0.00 0.00 44 1012.9
20260906215227 38 119 4.8 8.0 0.00 0.00 0.00 41 1012.9
20260906214725 37 81 8.0 14.5 0.00 0.00 0.00 43 1012.9
20260906214221 37 141 11.3 12.9 0.00 0.00 0.00 43 1012.9
20260906213719 38 98 3.2 8.0 0.00 0.00 0.00 43 1012.9
20260906213214 38 177 1.6 4.8 0.00 0.00 0.00 42 1012.9
20260906212711 38 99 3.2 9.7 0.00 0.00 0.00 41 1013.2
20260906212207 37 173 3.2 11.3 0.00 0.00 0.00 43 1013.2
20260906211706 37 105 1.6 3.2 0.00 0.00 0.00 44 1013.2
20260906211202 37 119 1.6 8.0 0.00 0.00 0.00 45 1013.2
20260906210657 37 164 4.8 14.5 0.00 0.00 0.00 44 1013.2
20260906210157 37 96 3.2 12.9 0.00 0.00 0.00 43 1013.6
20260906205653 37 142 1.6 4.8 0.00 0.00 0.00 45 1013.6
20260906205149 37 127 4.8 8.0 0.00 0.00 0.00 44 1013.6
20260906204649 37 166 3.2 8.0 0.00 0.00 0.00 44 1013.6
20260906204143 36 57 1.6 9.7 0.00 0.00 0.00 45 1013.6
20260906203643 37 45 4.8 9.7 0.00 0.00 0.00 45 1013.6
20260906203138 37 159 3.2 9.7 0.00 0.00 0.00 44 1013.9
20260906202635 37 150 8.0 12.9 0.00 0.00 0.00 44 1013.9
20260906202134 37 214 4.8 8.0 0.00 0.00 0.00 44 1013.9
20260906201629 37 89 6.4 16.1 0.00 0.00 0.00 46 1013.9
20260906201128 37 67 8.0 12.9 0.00 0.00 0.00 45 1013.9
20260906200625 37 199 1.6 4.8 0.00 0.00 0.00 45 1014.2
20260906200121 37 161 1.6 9.7 0.00 0.00 0.00 44 1014.2
20260906195621 37 145 4.8 8.0 0.00 0.00 0.00 46 1014.2
20260906195117 37 109 1.6 9.7 0.00 0.00 0.00 45 1014.2
20260906194613 38 100 6.4 16.1 0.00 0.00 0.00 44 1014.2
20260906194108 37 52 1.6 4.8 0.00 0.00 0.00 45 1013.9
20260906193603 37 135 4.8 12.9 0.00 0.00 0.00 46 1014.7
20260906193058 37 146 6.4 12.9 0.00 0.00 0.00 47 1014.7
20260906192554 37 154 3.2 16.1 0.00 0.00 0.00 47 1014.2
20260906192053 37 177 3.2 4.8 0.00 0.00 0.00 47 1014.7
20260906191548 37 100 6.4 8.0 0.00 0.00 0.00 47 1014.7
20260906191047 37 166 4.8 8.0 0.00 0.00 0.00 48 1014.7
20260906190546 36 186 4.8 8.0 0.00 0.00 0.00 48 1014.7
20260906190042 36 139 1.6 8.0 0.00 0.00 0.00 49 1014.7
20260906185541 35 147 4.8 12.9 0.00 0.00 0.00 49 1014.7
20260906185039 36 177 4.8 9.7 0.00 0.00 0.00 48 1015.0
20260906184534 37 153 1.6 3.2 0.00 0.00 0.00 47 1015.0
20260906184030 37 166 1.6 4.8 0.00 0.00 0.00 50 1015.0
20260906183527 36 125 1.6 9.7 0.00 0.00 0.00 49 1015.0
20260906183022 36 107 3.2 8.0 0.00 0.00 0.00 50 1015.0
20260906182517 36 119 3.2 4.8 0.00 0.00 0.00 49 1015.0
20260906182013 35 169 3.2 8.0 0.00 0.00 0.00 50 1015.3
20260906181509 35 142 1.6 1.6 0.00 0.00 0.00 51 1015.3
20260906181004 36 176 1.6 9.7 0.00 0.00 0.00 51 1015.7
20260906180504 36 203 3.2 3.2 0.00 0.00 0.00 50 1015.3
20260906180002 36 160 1.6 4.8 0.00 0.00 0.00 50 1015.7
20260906175457 36 138 3.2 9.7 0.00 0.00 0.00 51 1015.7
20260906174956 36 151 1.6 8.0 0.00 0.00 0.00 51 1016.0
20260906174455 35 189 6.4 11.3 0.00 0.00 0.00 52 1015.7
20260906173950 35 131 4.8 12.9 0.00 0.00 0.00 53 1015.7
20260906173445 36 134 1.6 8.0 0.00 0.00 0.00 53 1016.0
20260906172945 36 112 3.2 4.8 0.00 0.00 0.00 52 1016.0
20260906172441 35 76 3.2 4.8 0.00 0.00 0.00 52 1016.0
20260906171936 35 100 6.4 11.3 0.00 0.00 0.00 53 1016.4
20260906171431 35 100 4.8 4.8 0.00 0.00 0.00 53 1016.4
20260906170926 35 216 1.6 8.0 0.00 0.00 0.00 55 1016.4
20260906170423 34 111 1.6 3.2 0.00 0.00 0.00 56 1016.4
20260906165919 34 126 3.2 3.2 0.00 0.00 0.00 56 1016.7
20260906165418 35 148 8.0 11.3 0.00 0.00 0.00 55 1016.7
20260906164914 35 100 4.8 9.7 0.00 0.00 0.00 56 1016.7
20260906164412 34 156 0.0 1.6 0.00 0.00 0.00 57 1016.7
20260906163909 34 130 1.6 4.8 0.00 0.00 0.00 56 1016.7
20260906163404 34 180 1.6 8.0 0.00 0.00 0.00 57 1016.7
20260906162902 35 167 0.0 4.8 0.00 0.00 0.00 60 1016.7
20260906162401 34 156 0.0 3.2 0.00 0.00 0.00 57 1016.7
20260906161856 33 94 3.2 8.0 0.00 0.00 0.00 60 1016.7
20260906161355 33 175 1.6 4.8 0.00 0.00 0.00 63 1016.7
20260906160855 33 139 6.4 9.7 0.00 0.00 0.00 62 1016.7
20260906160348 33 140 0.0 8.0 0.00 0.00 0.00 63 1016.7
20260906155847 33 170 6.4 9.7 0.00 0.00 0.00 61 1016.7
20260906155341 33 157 1.6 3.2 0.00 0.00 0.00 64 1016.4
20260906154837 32 148 0.0 3.2 0.00 0.00 0.00 65 1016.7
20260906154332 32 173 1.6 3.2 0.00 0.00 0.00 66 1016.7
20260906153830 33 106 1.6 4.8 0.00 0.00 0.00 65 1017.0
20260906153324 32 152 3.2 4.8 0.00 0.00 0.00 66 1016.7
20260906152820 32 166 1.6 3.2 0.00 0.00 0.00 67 1016.7
20260906152315 32 173 3.2 4.8 0.00 0.00 0.00 67 1016.4
20260906151814 32 135 0.0 3.2 0.00 0.00 0.00 68 1016.4
20260906151309 31 142 0.0 3.2 0.00 0.00 0.00 69 1016.4
20260906150805 32 164 6.4 9.7 0.00 0.00 0.00 68 1016.4
20260906150301 31 175 1.6 3.2 0.00 0.00 0.00 70 1016.4
20260906145800 31 168 4.8 8.0 0.00 0.00 0.00 69 1016.4
20260906145258 31 154 0.0 3.2 0.00 0.00 0.00 70 1016.0
20260906144753 31 201 0.0 3.2 0.00 0.00 0.00 71 1016.4
20260906144248 31 169 1.6 1.6 0.00 0.00 0.00 71 1016.4
20260906143748 31 156 1.6 4.8 0.00 0.00 0.00 72 1016.4
20260906143245 30 176 0.0 3.2 0.00 0.00 0.00 73 1016.4
20260906142744 30 174 1.6 3.2 0.00 0.00 0.00 73 1016.4
20260906142239 30 181 0.0 1.6 0.00 0.00 0.00 74 1016.4
20260906141737 30 182 1.6 3.2 0.00 0.00 0.00 74 1016.4
20260906141233 30 145 1.6 4.8 0.00 0.00 0.00 74 1016.4
20260906140732 30 163 0.0 1.6 0.00 0.00 0.00 75 1016.4
20260906140227 30 162 1.6 3.2 0.00 0.00 0.00 75 1016.4
20260906135724 29 152 1.6 3.2 0.00 0.00 0.00 76 1016.4
20260906135220 29 160 0.0 3.2 0.00 0.00 0.00 77 1016.4
20260906134715 28 167 0.0 1.6 0.00 0.00 0.00 78 1016.0
20260906134210 28 139 0.0 1.6 0.00 0.00 0.00 79 1016.4
20260906133706 28 156 0.0 1.6 0.00 0.00 0.00 79 1016.0
20260906133201 28 157 1.6 3.2 0.00 0.00 0.00 80 1016.0
20260906132651 27 141 1.6 3.2 0.00 0.00 0.00 81 1016.4
20260906132147 27 139 0.0 1.6 0.00 0.00 0.00 81 1016.0
20260906131642 27 160 0.0 1.6 0.00 0.00 0.00 82 1016.4
20260906131137 27 160 1.6 3.2 0.00 0.00 0.00 83 1016.0
20260906130632 26 92 0.0 1.6 0.00 0.00 0.00 85 1016.4
20260906130127 26 171 0.0 1.6 0.00 0.00 0.00 88 1016.0
20260906125625 25 155 1.6 3.2 0.00 0.00 0.00 89 1016.0
20260906125123 25 152 1.6 3.2 0.00 0.00 0.00 92 1016.0
20260906124619 24 174 0.0 1.6 0.00 0.00 0.00 93 1016.0
20260906124114 24 172 0.0 1.6 0.00 0.00 0.00 93 1016.0
20260906123614 23 175 0.0 0.0 0.00 0.00 0.00 93 1016.0
20260906123109 23 199 0.0 0.0 0.00 0.00 0.00 93 1016.0
20260906122608 23 199 0.0 0.0 0.00 0.00 0.00 93 1015.7
20260906122104 23 198 0.0 0.0 0.00 0.00 0.00 93 1015.7
20260906121600 23 198 0.0 0.0 0.00 0.00 0.00 92 1016.0
20260906121056 23 198 0.0 0.0 0.00 0.00 0.00 92 1015.7
20260906120552 24 199 0.0 0.0 0.00 0.00 0.00 92 1015.7
20260906120049 24 197 0.0 0.0 0.00 0.00 0.00 91 1015.7
20260906115548 24 197 0.0 0.0 0.00 0.00 0.00 91 1015.7
20260906115043 24 197 0.0 0.0 0.00 0.00 0.00 91 1015.7
20260906114537 24 197 0.0 0.0 0.00 0.00 0.00 90 1015.3
20260906114033 24 196 0.0 0.0 0.00 0.00 0.00 90 1015.3
20260906113532 25 196 0.0 1.6 0.00 0.00 0.00 90 1015.3
20260906113027 25 191 0.0 0.0 0.00 0.00 0.00 91 1015.3
20260906112522 24 195 0.0 0.0 0.00 0.00 0.00 91 1015.3
20260906112019 24 198 0.0 0.0 0.00 0.00 0.00 91 1015.3
20260906111518 24 198 0.0 0.0 0.00 0.00 0.00 91 1015.3
20260906111013 25 199 0.0 1.6 0.00 0.00 0.00 90 1015.0
20260906110508 25 199 0.0 0.0 0.00 0.00 0.00 90 1015.3
20260906110007 25 201 0.0 0.0 0.00 0.00 0.00 89 1015.0
20260906105503 25 201 0.0 0.0 0.00 0.00 0.00 89 1015.0
20260906104959 25 201 0.0 0.0 0.00 0.00 0.00 88 1014.7
20260906104457 25 201 0.0 0.0 0.00 0.00 0.00 88 1015.0
20260906103957 25 201 0.0 0.0 0.00 0.00 0.00 87 1015.0
20260906103455 25 202 0.0 0.0 0.00 0.00 0.00 87 1014.7
20260906102950 25 203 0.0 1.6 0.00 0.00 0.00 87 1015.0
20260906102444 25 194 0.0 0.0 0.00 0.00 0.00 86 1015.0
20260906101939 25 194 0.0 0.0 0.00 0.00 0.00 86 1015.0
20260906101435 26 183 0.0 0.0 0.00 0.00 0.00 85 1014.7
20260906100930 26 173 0.0 0.0 0.00 0.00 0.00 85 1014.7
20260906100430 26 185 0.0 1.6 0.00 0.00 0.00 85 1014.7
20260906095924 26 193 0.0 1.6 0.00 0.00 0.00 84 1014.7
20260906095420 26 191 0.0 3.2 0.00 0.00 0.00 84 1014.7
20260906094920 26 193 0.0 1.6 0.00 0.00 0.00 84 1014.7
20260906094414 26 199 0.0 0.0 0.00 0.00 0.00 84 1014.2
20260906093905 26 189 0.0 1.6 0.00 0.00 0.00 84 1014.2
20260906093402 26 190 1.6 3.2 0.00 0.00 0.00 84 1014.2
20260906092900 26 199 0.0 1.6 0.00 0.00 0.00 84 1014.2
20260906092355 26 202 0.0 1.6 0.00 0.00 0.00 84 1014.7
20260906091850 26 197 0.0 1.6 0.00 0.00 0.00 83 1014.2
20260906091346 26 182 0.0 1.6 0.00 0.00 0.00 83 1014.2
20260906090842 26 198 0.0 1.6 0.00 0.00 0.00 83 1014.2
20260906090342 26 202 1.6 1.6 0.00 0.00 0.00 83 1014.2
20260906085836 26 194 0.0 3.2 0.00 0.00 0.00 83 1014.2
20260906085335 26 193 0.0 1.6 0.00 0.00 0.00 83 1014.2
20260906084830 26 183 0.0 1.6 0.00 0.00 0.00 83 1014.2
20260906084330 26 165 0.0 1.6 0.00 0.00 0.00 83 1014.2
20260906083825 26 198 1.6 1.6 0.00 0.00 0.00 83 1014.2
20260906083320 26 183 0.0 0.0 0.00 0.00 0.00 83 1014.2
20260906082814 26 202 0.0 0.0 0.00 0.00 0.00 82 1014.2
20260906082309 26 192 0.0 1.6 0.00 0.00 0.00 82 1014.2
20260906081805 26 194 0.0 1.6 0.00 0.00 0.00 82 1014.2
20260906081301 27 199 0.0 1.6 0.00 0.00 0.00 82 1014.2
20260906080757 27 199 0.0 1.6 0.00 0.00 0.00 81 1014.7
20260906080253 27 195 0.0 1.6 0.00 0.00 0.00 81 1014.7
20260906075747 27 193 0.0 1.6 0.00 0.00 0.00 81 1014.7
20260906075241 27 204 1.6 3.2 0.00 0.00 0.00 80 1014.7
20260906074736 27 202 1.6 3.2 0.00 0.00 0.00 80 1014.7
20260906074231 27 182 0.0 1.6 0.00 0.00 0.00 80 1014.7
20260906073731 27 185 0.0 1.6 0.00 0.00 0.00 80 1014.7
20260906073231 27 196 0.0 3.2 0.00 0.00 0.00 80 1014.2
20260906072726 27 198 3.2 3.2 0.00 0.00 0.00 80 1014.7
20260906072222 27 202 1.6 3.2 0.00 0.00 0.00 80 1014.7
20260906071718 27 204 1.6 3.2 0.00 0.00 0.00 79 1014.7
20260906071218 28 186 0.0 4.8 0.00 0.00 0.00 79 1014.7
20260906070715 28 150 0.0 3.2 0.00 0.00 0.00 79 1014.7
20260906070210 28 183 0.0 4.8 0.00 0.00 0.00 78 1014.7
20260906065709 28 102 3.2 9.7 0.00 0.00 0.00 78 1014.7
20260906065205 28 143 0.0 1.6 0.00 0.00 0.00 78 1014.7
20260906064700 28 224 1.6 3.2 0.00 0.00 0.00 78 1014.2
20260906064155 28 180 3.2 4.8 0.00 0.00 0.00 78 1014.7
20260906063650 28 186 1.6 3.2 0.00 0.00 0.00 78 1015.0
20260906063146 28 183 1.6 3.2 0.00 0.00 0.00 77 1014.7
20260906062642 28 187 1.6 3.2 0.00 0.00 0.00 77 1015.0
20260906062140 28 191 0.0 3.2 0.00 0.00 0.00 77 1015.0
20260906061637 28 200 0.0 3.2 0.00 0.00 0.00 77 1014.7
20260906061137 28 191 0.0 1.6 0.00 0.00 0.00 77 1014.7
20260906060633 28 188 0.0 0.0 0.00 0.00 0.00 77 1014.7
20260906060131 28 210 1.6 3.2 0.00 0.00 0.00 77 1015.0
20260906055626 28 182 0.0 1.6 0.00 0.00 0.00 77 1015.0
20260906055121 28 194 0.0 1.6 0.00 0.00 0.00 77 1014.7
20260906054616 28 197 0.0 0.0 0.00 0.00 0.00 77 1015.0
20260906054111 28 201 1.6 1.6 0.00 0.00 0.00 77 1015.0
20260906053608 28 196 0.0 0.0 0.00 0.00 0.00 76 1015.0
20260906053103 28 188 1.6 3.2 0.00 0.00 0.00 75 1014.7
20260906052558 28 171 1.6 1.6 0.00 0.00 0.00 74 1014.7
20260906052055 28 188 0.0 4.8 0.00 0.00 0.00 74 1015.0
20260906051550 29 145 1.6 3.2 0.00 0.00 0.00 74 1015.0
20260906051045 29 196 0.0 3.2 0.00 0.00 0.00 74 1014.7
20260906050541 29 189 1.6 3.2 0.00 0.00 0.00 74 1015.0
20260906050036 29 201 0.0 4.8 0.00 0.00 0.00 74 1014.7
20260906045534 29 201 0.0 3.2 0.00 0.00 0.00 73 1015.0
20260906045030 29 167 3.2 4.8 0.00 0.00 0.00 73 1014.7
20260906044525 29 173 3.2 9.7 0.00 0.00 0.00 73 1015.0
20260906044021 29 168 1.6 3.2 0.00 0.00 0.00 73 1014.7
20260906043516 29 166 1.6 8.0 0.00 0.00 0.00 73 1014.7
20260906043013 29 202 1.6 1.6 0.00 0.00 0.00 73 1014.7
20260906042511 30 188 0.0 1.6 0.00 0.00 0.00 73 1014.7
20260906042010 30 187 1.6 3.2 0.00 0.00 0.00 73 1014.7
20260906041508 30 191 1.6 3.2 0.00 0.00 0.00 73 1014.7
20260906041007 30 183 0.0 1.6 0.00 0.00 0.00 72 1014.7
20260906040502 30 177 1.6 3.2 0.00 0.00 0.00 72 1014.7
20260906035957 30 194 0.0 1.6 0.00 0.00 0.00 71 1014.2
20260906035453 30 196 1.6 4.8 0.00 0.00 0.00 71 1014.7
20260906034949 30 179 0.0 3.2 0.00 0.00 0.00 70 1014.7
20260906034449 30 187 3.2 3.2 0.00 0.00 0.00 70 1014.7
20260906033944 30 237 1.6 3.2 0.00 0.00 0.00 70 1014.7
20260906033444 30 189 0.0 1.6 0.00 0.00 0.00 70 1014.7
20260906032940 30 180 0.0 4.8 0.00 0.00 0.00 70 1015.0
20260906032436 30 177 1.6 3.2 0.00 0.00 0.00 69 1015.0
20260906031930 30 184 1.6 1.6 0.00 0.00 0.00 69 1014.7
20260906031426 30 163 0.0 1.6 0.00 0.00 0.00 69 1014.7
20260906030921 30 175 1.6 1.6 0.00 0.00 0.00 68 1014.7
20260906030416 30 150 0.0 3.2 0.00 0.00 0.00 68 1014.7
20260906025916 31 185 0.0 3.2 0.00 0.00 0.00 67 1014.7
20260906025410 31 165 0.0 4.8 0.00 0.00 0.00 66 1014.7
20260906024909 31 166 0.0 1.6 0.00 0.00 0.00 65 1014.7
20260906024408 31 175 0.0 4.8 0.00 0.00 0.00 65 1014.7
20260906023904 31 190 0.0 3.2 0.00 0.00 0.00 64 1014.7
20260906023400 31 179 1.6 3.2 0.00 0.00 0.00 63 1014.2
20260906022855 31 141 1.6 8.0 0.00 0.00 0.00 63 1013.9
20260906022350 31 165 1.6 9.7 0.00 0.00 0.00 62 1013.9
20260906021846 32 140 3.2 4.8 0.00 0.00 0.00 61 1013.9
20260906021345 32 159 3.2 4.8 0.00 0.00 0.00 60 1013.9
20260906020840 32 195 4.8 11.3 0.00 0.00 0.00 60 1013.9
20260906020339 32 188 3.2 4.8 0.00 0.00 0.00 60 1013.9
20260906015834 32 123 3.2 4.8 0.00 0.00 0.00 59 1013.6
20260906015333 32 97 1.6 16.1 0.00 0.00 0.00 58 1013.6
20260906014832 33 120 0.0 4.8 0.00 0.00 0.00 57 1013.2
20260906014327 33 160 3.2 8.0 0.00 0.00 0.00 56 1013.6
20260906013824 33 107 4.8 12.9 0.00 0.00 0.00 54 1013.2
20260906013319 33 112 1.6 8.0 0.00 0.00 0.00 51 1013.2
20260906012814 33 175 0.0 1.6 0.00 0.00 0.00 51 1012.9
20260906012309 33 178 1.6 3.2 0.00 0.00 0.00 51 1012.9
20260906011804 34 182 0.0 1.6 0.00 0.00 0.00 51 1012.5
20260906011304 34 145 3.2 8.0 0.00 0.00 0.00 50 1012.9
20260906010800 34 180 0.0 3.2 0.00 0.00 0.00 50 1012.9
20260906010256 35 174 1.6 4.8 0.00 0.00 0.00 49 1012.5
20260906005750 35 113 6.4 9.7 0.00 0.00 0.00 48 1012.5
20260906005250 35 55 3.2 8.0 0.00 0.00 0.00 47 1012.5
20260906004749 35 150 1.6 4.8 0.00 0.00 0.00 47 1012.9
20260906004244 35 134 3.2 3.2 0.00 0.00 0.00 46 1012.5
20260906003738 35 162 0.0 4.8 0.00 0.00 0.00 46 1012.9
20260906003234 35 154 3.2 8.0 0.00 0.00 0.00 45 1012.5
20260906002735 36 173 1.6 8.0 0.00 0.00 0.00 45 1012.5
20260906002234 36 132 1.6 3.2 0.00 0.00 0.00 45 1012.5
20260906001730 36 177 1.6 3.2 0.00 0.00 0.00 44 1012.9
20260906001225 36 108 3.2 8.0 0.00 0.00 0.00 44 1012.2
20260906000720 36 156 0.0 1.6 0.00 0.00 0.00 44 1012.2
20260906000215 36 146 1.6 3.2 0.00 0.00 0.00 43 1012.5
20260905235715 36 158 0.0 4.8 0.00 0.00 0.00 43 1012.5
20260905235209 36 157 0.0 4.8 0.00 0.00 0.00 42 1012.5
20260905234705 36 121 3.2 8.0 0.00 0.00 0.00 42 1012.9
20260905234200 36 148 1.6 8.0 0.00 0.00 0.00 43 1012.5
20260905233656 36 160 4.8 8.0 0.00 0.00 0.00 43 1012.5
20260905233155 36 92 4.8 4.8 0.00 0.00 0.00 43 1012.2
20260905232650 36 130 8.0 11.3 0.00 0.00 0.00 43 1012.5
20260905232146 37 145 9.7 12.9 0.00 0.00 0.00 43 1012.2
20260905231640 37 148 1.6 3.2 0.00 0.00 0.00 43 1012.5
20260905231137 37 169 4.8 4.8 0.00 0.00 0.00 43 1012.5